User: anonymous   Login
Location: Unspecified
(0.0000°N, 0.0000°E)
Time: 03:30:11
(UTC+00:00)
Language:

BEESAT - Orbit

View from above orbital plane
View from above orbital plane
View from above satellite
View from above satellite

Ground track
Ground track

The orbit data is extracted from the following two-line orbital elements,

1 35933U 09051C   17173.34469290 +.00000106 +00000-0 +34853-4 0  9998
2 35933 098.5001 313.2554 0004741 242.2544 117.8173 14.56136697411091
Epoch (UTC): 22 June 2017 08:16:21
Eccentricity: 0.0004741
inclination: 98.5001°
perigee height: 702 km
apogee height: 709 km
right ascension of ascending node: 313.2554°
argument of perigee: 242.2544°
revolutions per day: 14.56136697
mean anomaly at epoch: 117.8173°
orbit number at epoch: 41109

The dashed part of the orbit path shows where the satellite is in the earth's shadow,  

DLR